Regional Weather Roundup
Issued by NWS

Home | Current Version | Previous Version | Graphics & Text | Print | Product List | Glossary On
Versions: 1 2 3 4 5 6 7 8 9 10 11 12 13 14 15 16 17 18 19 20 21 22 23 24 25 26 27 28 29 30 31 32 33 34 35 36 37 38 39 40 41 42 43 44 45 46 47 48 49 50
000
ASUS43 KLOT 050221
RWRIL

ILLINOIS REGIONAL WEATHER ROUNDUP
NATIONAL WEATHER SERVICE CHICAGO/ROMEOVILLE IL
900 PM CDT MON MAY 04 2015

NOTE: "FAIR" INDICATES FEW OR NO CLOUDS BELOW 12,000 FEET WITH NO
SIGNIFICANT WEATHER AND/OR OBSTRUCTIONS TO VISIBILITY.

* THESE STATIONS ARE NOT UNDER NWS QUALITY CONTROL. THEY ALSO MAY NOT
  REPORT WEATHER SUCH AS PRECIPITATION OR FOG.

ILZ001-002-007-009-015-016-024-050300-
NORTHWEST ILLINOIS

CITY           SKY/WX    TMP DP  RH WIND       PRES   REMARKS
MOLINE         LGT RAIN  67  62  84 SE6       30.08R
STERLING*      CLOUDY    66  61  82 E12       30.11R
SAVANNA*       CLOUDY    70  60  70 E7        30.10S
$$

ILZ003-004-008-010-011-017-018-050300-
NORTH CENTRAL ILLINOIS

CITY           SKY/WX    TMP DP  RH WIND       PRES   REMARKS
ROCKFORD       MOCLDY    64  49  57 E13G21    30.16R
FREEPORT*      CLOUDY    64  58  80 E12       30.15R
ROCHELLE*      CLOUDY    63  55  77 E14G22    30.14R
DE KALB*       CLOUDY    58  49  72 E9        30.17R
PERU*          CLOUDY    69  57  66 E8        30.12R
$$

ILZ005-006-012>014-019>023-050300-
NORTHEAST ILLINOIS

CITY           SKY/WX    TMP DP  RH WIND       PRES   REMARKS
CHICAGO-OHARE  MOCLDY    55  39  54 NE8       30.18R
CHICAGO-MIDWAY CLOUDY    57  48  72 E7        30.17S
AURORA         CLOUDY    62  51  67 NE9G18    30.16R
LANSING*       MOCLDY    55  50  83 NE9       30.17S
JOLIET*        MOCLDY    63  55  76 NE7       30.15S
WAUKEGAN       MOCLDY    48  40  73 CALM      30.19R
DUPAGE AIRPORT MOCLDY    59  47  64 E10       30.17R
KANKAKEE*      PTCLDY    62  61  94 E6        30.15R
WHEELING       PTCLDY    53  38  56 N5        30.20R
MORRIS*        CLOUDY    63  55  74 E10       30.13R
ROMEOVILLE*    CLOUDY    60  52  74 E12       30.16R
NORTHERLY ISL    N/A     50  42  74 NE5         N/A
$$

LMZ740>746-050300-
SOUTHERN LAKE MICHIGAN

STATION/POSITION SKY/WX   TEMP    WIND        PRES    VSBY  WAVE
                          AIR SEA DIR/SP/G                  HT/PER
                          (F)     (DEG/KT/KT) (MB)    (MI)  (FT/S)
HARRISON CRIB              49     350/  2/  4   N/A
BURNHAM HARBOR             50      30/  4/  8   N/A
CALUMET HARBOR                    360/  4/  5   N/A
BURNS HARBOR               53      60/  9/ 10 1021.7R
MICHIGAN CITY              53      30/ 11/ 12   N/A
MICHIGAN CITY 6N           50 50   70/  4/  6   N/A           1
ST. JOSEPH                 50 49   50/  6/  6   N/A           1
$$

ILZ025>027-034>036-040-047-049-050-058-095>099-050300-
WEST-CENTRAL ILLINOIS

CITY           SKY/WX    TMP DP  RH WIND       PRES   REMARKS
QUINCY         MOCLDY    70  61  73 NE9       30.07R
GALESBURG*     LGT RAIN  67  64  90 E5        30.08F
MACOMB*        CLOUDY    65  63  94 E5        30.10R
JACKSONVILLE*  CLOUDY    74  60  61 CALM      30.07R
PITTSFIELD*    MOCLDY    74  59  59 E3        30.07R
$$

ILZ028>032-037-038-041>044-048-051>054-059>061-050300-
CENTRAL ILLINOIS

CITY           SKY/WX    TMP DP  RH WIND       PRES   REMARKS
PONTIAC        CLOUDY    67  64  91 E9        30.13R
BLOOMINGTON    CLOUDY    67  64  90 E10       30.12R
DECATUR        LGT RAIN  71  64  78 E13       30.10R
PEORIA         TSTM      70  64  81 E8        30.09R
LACON*         LGT RAIN  68  62  82 E9G16     30.10R
LINCOLN*       TSTM      72  65  79 E8        30.07R
SPRINGFIELD    CLOUDY    75  59  57 NE3       30.07S
TAYLORVILLE    CLOUDY    73  55  53 S7        30.08S
$$

ILZ033-039-045-046-055>057-062-063-050300-
EAST-CENTRAL ILLINOIS

CITY           SKY/WX    TMP DP  RH WIND       PRES   REMARKS
CHAMPAIGN      MOCLDY    66  61  84 E7        30.13R
DANVILLE*      MOCLDY    63  61  94 E6        30.12R
RANTOUL*       CLOUDY    68  64  89 E8        30.13R
MATTOON        CLOUDY    72  56  57 S5        30.11R
PARIS*         CLOUDY    68  60  76 E9        30.15R
$$

ILZ079-100>102-050300-
SOUTHWEST ILLINOIS

CITY           SKY/WX    TMP DP  RH WIND       PRES   REMARKS
ALTON          CLOUDY    72 N/A N/A SE6       30.08R
BELLEVILLE     CLEAR     73  58  59 SE2       30.08R
CAHOKIA*       LGT RAIN  75  55  49 S3        30.08R
SPARTA*        CLEAR     74  55  50 S5        30.11R
$$

ILZ064>066-069>071-074>076-080>082-084>086-088>090-092>094-050300-
SOUTH-CENTRAL ILLINOIS

CITY           SKY/WX    TMP DP  RH WIND       PRES   REMARKS
CARBONDALE     PTCLDY    73  53  49 S8        30.11R
CAIRO*         CLEAR     75  54  46 S7        30.12S
EFFINGHAM*     PTCLDY    70  55  58 SE5       30.13R
MARION         CLEAR     70  55  60 S5        30.13R
MT. VERNON     MOCLDY   N/A N/A N/A CALM      30.14R
CENTRALIA*     FAIR      69  54  59 SE5       30.12R
SALEM*         CLEAR     75  55  49 SE3       30.12R
METROPOLIS*    CLEAR     74  56  52 S5        30.13R
$$

ILZ067-068-072-073-078-083-087-091-050300-
SOUTHEAST ILLINOIS

CITY           SKY/WX    TMP DP  RH WIND       PRES   REMARKS
LAWRENCEVILLE  MOCLDY    70  57  63 S6        30.14R
FLORA*         MOCLDY    70  57  63 SE5       30.13R
FAIRFIELD*     CLEAR     73  55  53 CALM      30.12R
HARRISBURG*    CLEAR     71  56  58 SE6       30.15R
ROBINSON*      MOCLDY    70  57  63 S5        30.14R
CARMI*         CLEAR     69  53  57 S8        30.13R
$$

ABBREVIATIONS USED IN REMARKS
   TC - TEMPERATURE IN CELSIUS
  WCI - WIND CHILL INDEX
   HX - HEAT INDEX
  VSB - VISIBILITY
$$




USA.gov is the U.S. government's official web portal to all federal, state and local government web resources and services.